Regional Weather Roundup
Issued by NWS

Home | Current Version | Previous Version | Graphics & Text | Print | Product List | Glossary On
Versions: 1 2 3 4 5 6 7 8 9 10 11 12 13 14 15 16 17 18 19 20 21 22 23 24 25 26 27 28 29 30 31 32 33 34 35 36 37 38 39 40 41 42 43 44 45 46 47 48 49 50
000
ASUS43 KMKX 030500
RWRWI

WISCONSIN REGIONAL WEATHER ROUNDUP
NATIONAL WEATHER SERVICE MILWAUKEE/SULLIVAN WI
1200 AM CDT WED SEP 03 2014

NOTE: "FAIR" INDICATES FEW OR NO CLOUDS BELOW 12,000 FEET WITH NO
SIGNIFICANT WEATHER AND/OR OBSTRUCTIONS TO VISIBILITY.

WIZ001-002-006>008-014>016-023>028-030600-
NORTHWEST WISCONSIN

CITY           SKY/WX    TMP DP  RH WIND       PRES   REMARKS
SUPERIOR ARPT  MOCLDY    52  52  99 CALM      29.81S
ASHLAND        CLEAR     51  50  96 CALM      29.85S
HAYWARD        CLEAR     54  52  93 CALM      29.87S
SIREN          CLEAR     64  53  66 SW7       29.85S
RICE LAKE      CLEAR     56  53  91 SE3       29.90R
LADYSMITH      CLEAR     56  54  94 CALM      29.91R
EAU CLAIRE     NOT AVBL
MENOMONIE      CLEAR     60  56  85 CALM      29.89S
NEW RICHMOND   CLEAR     60  54  80 S3        29.89R
OSCEOLA        CLEAR     59  55  87 CALM      29.90S
$$

WIZ003>005-009-010-017-018-030600-
NORTH CENTRAL WISCONSIN

CITY           SKY/WX    TMP DP  RH WIND       PRES   REMARKS
WOODRUFF       CLEAR     57  53  88 CALM      29.91S
RHINELANDER    CLEAR     54  51  90 CALM      29.93R
EAGLE RIVER    CLEAR     50  50  99 CALM      29.91S
LAND O LAKES   CLEAR     50  49  98 CALM      29.91F
PHILLIPS       CLEAR     52  51  97 CALM      29.89S
TOMAHAWK       CLEAR     49  49  97 CALM      29.91S FOG
MEDFORD        CLEAR     54  53  97 S3        29.92R
MERRILL        CLEAR     51  51 100 CALM      29.92R FOG
$$

WIZ029-030-035-036-043>047-030600-
CENTRAL WISCONSIN

CITY           SKY/WX    TMP DP  RH WIND       PRES   REMARKS
WAUSAU         PTCLDY    56  55  97 SE3       29.91R
MOSINEE        PTCLDY    55  55 100 CALM      29.93R
MARSHFIELD     CLEAR     58  55  90 SW3       29.92R
STEVENS POINT  PTCLDY    55  54  96 CALM      29.93R
WAUPACA        PTCLDY    60  58  94 CALM      29.93R
WAUTOMA        NOT AVBL
WISC RAPIDS    CLEAR     56  56 100 S3        29.94R
CAMP DOUGLAS   NOT AVBL
$$

WIZ011>013-019>022-031-037>040-048>050-030600-
NORTHEAST WISCONSIN

CITY           SKY/WX    TMP DP  RH WIND       PRES   REMARKS
ANTIGO         CLEAR     53  51  95 CALM      29.93R
STURGEON BAY   CLEAR     61  55  82 SW3       29.90S
GREEN BAY      CLEAR     58  57  97 CALM      29.91S
MANITOWOC      NOT AVBL
APPLETON       CLEAR     63  55  77 SW8       29.93R
CLINTONVILLE   PTCLDY    55  54  94 CALM      29.91R
OSHKOSH        CLEAR     62  57  83 SW5       29.93R
$$

WIZ032>034-041-042-053>061-030600-
SOUTHWEST WISCONSIN

CITY           SKY/WX    TMP DP  RH WIND       PRES   REMARKS
LA CROSSE      CLEAR     65  61  87 S8        29.92R
SPARTA         CLEAR     57  56  98 CALM      29.94R
VIROQUA        FAIR      61  60  97 SW3       29.96R
BOSCOBEL       CLEAR     60  57  89 CALM      29.96R
PRAIRIE DU CHI CLEAR     61  58  91 CALM      29.95R
PLATTEVILLE    FAIR      62  58  86 CALM      29.98R
$$

WIZ056-057-062-063-064-067-068-030600-
SOUTH CENTRAL WISCONSIN

CITY           SKY/WX    TMP DP  RH WIND       PRES   REMARKS
BARABOO/DELLS  CLEAR     61  56  83 S3        29.95R
LONE ROCK      NOT AVBL
WATERTOWN      CLEAR     58  57  97 CALM      29.95R
MADISON        CLEAR     60  57  89 CALM      29.96R
MIDDLETON      FAIR      60  58  96 CALM      29.97R
MONROE         CLEAR     61  57  88 SW6       29.98R
JANESVILLE     CLEAR     61  59  94 CALM      29.96R
$$

WIZ051-052-058>065-066-070>072-030600-
SOUTHEAST WISCONSIN

CITY           SKY/WX    TMP DP  RH WIND       PRES   REMARKS
MILWAUKEE      CLEAR     66  58  75 CALM      29.95R
WAUKESHA       CLEAR     59  55  88 SW5       29.97R
MILWAUKEE/TIMM CLEAR     63  55  77 CALM      29.96R
RACINE         CLEAR     64  59  83 W5        29.98R
BURLINGTON     CLEAR     56  56 100 CALM      29.97R
KENOSHA        CLEAR     62  59  90 SW3       29.97R
FOND DU LAC    CLEAR     60  56  86 S3        29.94R
SHEBOYGAN      CLEAR     58  56  93 CALM      29.94R
WEST BEND      CLEAR     57  54  88 CALM      29.95S
JUNEAU         CLEAR     61  58  89 SW3       29.96R
$$

LSZ147-162-030600-
LAKE SUPERIOR

STATION/POSITION TIME  TEMP    WIND        PRES    WAVE
                       AIR SEA DIR/SP/G            HT/PER
                 (UTC) (F)     (DEG/KT/KT) (MB)    (FT/S)
W MID LAKE BUOY  0350   59 58  180/ 12/ 14 1009.2R   2/ 5
DEVILS ISLAND    0400   59     170/ 10/ 13 1009.6F
PORT WING        0400   60     150/  3/  8 1009.8
SAXON HARBOR     0440   58     200/  5/  7 1010.5F
$$

LMZ867-665-643>646-030600-
LAKE MICHIGAN

STATION/POSITION TIME  TEMP    WIND        PRES    WAVE
                       AIR SEA DIR/SP/G            HT/PER
                 (UTC) (F)     (DEG/KT/KT) (MB)    (FT/S)
N MID LAKE BUOY  0350   66 65  230/ 10/ 12 1011.1R   1/ 4
NORTHPORT PIER   0400   64     240/  3/  6 1011.5R
SISTER BAY       0411   68        CALM       N/A
ALGOMA LAKESHORE 0423             CALM       N/A
KEWAUNEE LAKESHO 0400   63     280/  2/  3 1011.6R
SHEBOYGAN LAKESH 0400   66 50  240/  6/  7 1013.4R
ATWATER BUOY     0400   67     160/  4/  4 1014.9R
MILWAUKEE LAKESH 0400   71     230/  6/  6   N/A
S MID LAKE BUOY  0350   72 71  200/  6/  8 1013.8R   0
KENOSHA   LAKESH 0400   71     260/  4/  5 1013.9R
$$

TC  - TEMPERATURE IN CELSIUS
VSB - VISIBILITY IN STATUTE MILES
WCI - WIND CHILL INDEX
HX  - HEAT INDEX




USA.gov is the U.S. government's official web portal to all federal, state and local government web resources and services.